Regional Weather Roundup
Issued by NWS

Home | Current Version | Previous Version | Text Only | Print | Product List | Glossary On
Versions: 1 2 3 4 5 6 7 8 9 10 11 12 13 14 15 16 17 18 19 20 21 22 23 24 25 26 27 28
000
ASUS44 KLIX 261111
RWRLA
LOUISIANA WEATHER ROUNDUP
NATIONAL WEATHER SERVICE NEW ORLEANS LA
600 AM CDT FRI AUG 26 2016

NOTE: "FAIR" INDICATES FEW OR NO CLOUDS BELOW 12,000 FEET WITH NO
      SIGNIFICANT WEATHER AND/OR OBSTRUCTIONS TO VISIBILITY.
      SKY/WX - SKY CONDITION AND SIGNIFICANT WEATHER.
      TMP - AIR TEMPERATURE.    DP   - DEWPOINT TEMPERATURE.
      RH  - RELATIVE HUMIDITY.  PRES - PRESSURE.
      HX  - HEAT INDEX.         WCI  - WIND CHILL INDEX.

*  THESE STATIONS ARE NOT NWS OR FAA STATIONS AND ARE NOT UNDER
   NWS QUALITY CONTROL.

LAZ040-048-061>063-065-066-069-261200-
SOUTHEAST LOUISIANA

CITY           SKY/WX    TMP DP  RH WIND       PRES   REMARKS
N.O. AUDUBON     N/A     79  78  96 MISG        N/A
N.O. INTL ARPT CLOUDY    82  77  84 NE9       30.01S
N.O. LAKEFRONT FAIR      81  76  84 NE17      30.02R
N.O. DOWNTOWN* CLOUDY    78  74  87 NW3       30.02S
RESERVE*       LGT RAIN  79  77  94 NE6       30.02S
SLIDELL        MOCLDY    74  73  97 N5        30.02R
BATON ROUGE    FAIR      74  73  97 N5        30.02S
BOOTHVILLE       N/A     83  74  74 E7        30.00R
BELLE CHASSE   MOCLDY    77  74  90 NE5       30.01R
BOGALUSA*      FAIR      74  71  90 CALM      30.05S
GALLIANO*      PTSUNNY  N/A N/A N/A N5        30.00S
NEW ROADS*     CLOUDY    74  74  99 CALM      30.03S FOG
GONZALES*      FAIR      75  75 100 CALM      30.01S
HAMMOND*       FAIR      73  70  88 NE3       30.02S
HOUMA*         PTCLDY    75  75 100 N5        30.01S
PORT FOURCHON* CLOUDY    84  73  70 E12       29.98S

$$

LAZ041-044-053-054-261200-
SOUTHWEST LOUISIANA

CITY           SKY/WX    TMP DP  RH WIND       PRES   REMARKS
LAKE CHARLES   LGT RAIN  76  76 100 NE6       30.02S FOG
LAFAYETTE      CLOUDY    77  75  93 NE3       30.02S FOG
PATTERSON      FAIR      76  75  97 NE3       30.01F
SALT POINT       N/A     77  75  93 CALM      29.99F
NEW IBERIA     FAIR      76  74  93 NE6       30.02F FOG
CHENAULT AIRPK MOCLDY    75  73  94 NE3       30.02F

$$

LAZ027-028-261200-
CENTRAL LOUISIANA

CITY           SKY/WX    TMP DP  RH WIND       PRES   REMARKS
FORT POLK      CLOUDY    73  72  96 SE6       30.03S
ALEXANDRIA INT CLOUDY    73  73 100 SE5       30.02R
ALEXANDRIA     CLOUDY    74  74 100 CALM      30.03R FOG

$$

LAZ001-002-261200-
NORTHWEST LOUISIANA

CITY           SKY/WX    TMP DP  RH WIND       PRES   REMARKS
SHREVEPORT     FAIR      74  73  97 SE5       30.04R THUNDER
BARKSDALE AFB  FAIR      73  73 100 NE3       30.06R
DTN SHREVEPORT CLOUDY    74  72  93 NE3       30.05R

$$

LAZ014-016-261200-
NORTHEAST LOUISIANA

CITY           SKY/WX    TMP DP  RH WIND       PRES   REMARKS
MONROE         CLOUDY    75  74  96 CALM      30.06R
TALLULAH       MOCLDY    75  73  93 CALM      30.05R

$$





USA.gov is the U.S. government's official web portal to all federal, state and local government web resources and services.